Change the Weather History Date:

Monday, March 19, 2012

  Actual Average Record
Temperature  
Mean Temperature 69 °F -  
Max Temperature 78 °F 44 °F 78 °F (2012)
Min Temperature 60 °F 27 °F 12 °F (2013)
Cooling Degree Days 4    
Growing Degree Days 19 (Base 50)    
Moisture  
Dew Point 60 °F    
Average Humidity 79    
Maximum Humidity 94    
Minimum Humidity 54    
Precipitation  
Precipitation 0.08 in - - ()
Sea Level Pressure  
Sea Level Pressure 29.85 in    
Wind  
Wind Speed 11 mph (SE)    
Max Wind Speed 30 mph    
Max Gust Speed 41 mph    
Visibility 10 miles    
Events Rain    
Averages and records for this station are not official NWS values.
T = Trace of Precipitation, MM = Missing Value Source: NWS Daily Summary

Daily Weather History Graph

Daily Weather History Graph

Search for Another Location

Airport or City:

Trip Planner

Search our weather history database for the weather conditions in past years. The results will help you decide how hot, cold, wet, or windy it might be!

Date:

Astronomy

Mar. 19, 2012 Rise Set
Actual Time 7:08 AM CDT 7:16 PM CDT
Civil Twilight 6:40 AM CDT 7:44 PM CDT
Nautical Twilight 6:08 AM CDT 8:17 PM CDT
Astronomical Twilight 5:34 AM CDT 8:50 PM CDT
Moon 5:23 AM CDT (3/19) 4:42 PM CDT (3/19)
Length of Visible Light 13h 03m
Length of Day
12h 07m
Waning Crescent, 8% of the Moon is Illuminated
Mar 19
Waning Crescent
Mar 22
New
Mar 30
First Quarter
Apr 6
Full
Apr 13
Last Quarter

Hourly Weather History & Observations

Time (CDT) Temp. Dew Point Humidity Pressure Visibility Wind Dir Wind Speed Gust Speed Precip Events Conditions
12:15 AM 64.4 °F 57.2 °F 77% 29.90 in 10.0 mi SSE 6.9 mph - N/A   Clear
12:35 AM 62.6 °F 57.2 °F 82% 29.89 in 10.0 mi SSE 6.9 mph - N/A   Clear
1:15 AM 60.8 °F 55.4 °F 82% 29.88 in 10.0 mi SE 8.1 mph - N/A   Clear
1:55 AM 60.8 °F 55.4 °F 82% 29.88 in 10.0 mi SE 8.1 mph - N/A   Clear
2:35 AM 60.8 °F 55.4 °F 82% 29.88 in 10.0 mi SE 9.2 mph - N/A   Clear
2:55 AM 60.8 °F 55.4 °F 82% 29.88 in 10.0 mi SE 8.1 mph - N/A   Clear
3:15 AM 60.8 °F 55.4 °F 82% 29.88 in 10.0 mi SE 9.2 mph - N/A   Clear
3:35 AM 60.8 °F 55.4 °F 82% 29.88 in 10.0 mi SE 9.2 mph - N/A   Clear
3:55 AM 60.8 °F 55.4 °F 82% 29.88 in 10.0 mi SE 9.2 mph - N/A   Clear
4:15 AM 60.8 °F 55.4 °F 82% 29.88 in 10.0 mi SE 8.1 mph - N/A   Clear
4:35 AM 60.8 °F 55.4 °F 82% 29.88 in 10.0 mi SE 8.1 mph - N/A   Clear
5:15 AM 60.8 °F 55.4 °F 82% 29.89 in 10.0 mi SE 8.1 mph - N/A   Mostly Cloudy
5:35 AM 60.8 °F 57.2 °F 88% 29.88 in 10.0 mi SE 8.1 mph - N/A   Overcast
5:55 AM 60.8 °F 55.4 °F 82% 29.88 in 10.0 mi SE 9.2 mph - N/A   Mostly Cloudy
6:15 AM 60.8 °F 55.4 °F 82% 29.88 in 10.0 mi SE 8.1 mph - N/A   Mostly Cloudy
6:35 AM 60.8 °F 57.2 °F 88% 29.89 in 10.0 mi SE 8.1 mph - N/A   Overcast
7:15 AM 60.8 °F 57.2 °F 88% 29.90 in 10.0 mi SE 10.4 mph - N/A   Mostly Cloudy
7:35 AM 60.8 °F 57.2 °F 88% 29.90 in 10.0 mi SE 10.4 mph - N/A   Mostly Cloudy
7:55 AM 62.6 °F 57.2 °F 82% 29.90 in 10.0 mi SE 11.5 mph - N/A   Scattered Clouds
8:15 AM 62.6 °F 59.0 °F 88% 29.91 in 10.0 mi SE 11.5 mph - N/A Rain Light Rain
8:35 AM 62.6 °F 59.0 °F 88% 29.91 in 10.0 mi SE 11.5 mph - N/A Rain Light Rain
8:55 AM 64.4 °F 59.0 °F 83% 29.90 in 10.0 mi SSE 12.7 mph - N/A   Overcast
9:15 AM 64.4 °F 59.0 °F 83% 29.91 in 10.0 mi SSE 11.5 mph - N/A   Overcast
9:55 AM 64.4 °F 60.8 °F 88% 29.90 in 10.0 mi SE 13.8 mph 17.3 mph N/A   Mostly Cloudy
10:15 AM 64.4 °F 60.8 °F 88% 29.91 in 10.0 mi SE 13.8 mph - N/A   Scattered Clouds
10:35 AM 64.4 °F 60.8 °F 88% 29.91 in 10.0 mi SE 16.1 mph - N/A   Mostly Cloudy
10:55 AM 68.0 °F 62.6 °F 83% 29.91 in 10.0 mi SE 12.7 mph 19.6 mph N/A   Mostly Cloudy
11:15 AM 68.0 °F 62.6 °F 83% 29.91 in 10.0 mi SE 15.0 mph 20.7 mph N/A   Overcast
11:35 AM 69.8 °F 62.6 °F 78% 29.90 in 10.0 mi SE 17.3 mph 20.7 mph N/A   Overcast
11:55 AM 69.8 °F 62.6 °F 78% 29.88 in 10.0 mi ESE 15.0 mph - N/A   Mostly Cloudy
12:15 PM 69.8 °F 64.4 °F 83% 29.88 in 10.0 mi ESE 16.1 mph - N/A   Mostly Cloudy
12:35 PM 71.6 °F 64.4 °F 78% 29.87 in 10.0 mi SE 20.7 mph - N/A   Mostly Cloudy
1:15 PM 73.4 °F 64.4 °F 73% 29.85 in 10.0 mi SE 16.1 mph - N/A   Scattered Clouds
1:35 PM 73.4 °F 64.4 °F 73% 29.85 in 10.0 mi SE 17.3 mph 23.0 mph N/A   Scattered Clouds
1:55 PM 75.2 °F 64.4 °F 69% 29.83 in 10.0 mi SE 17.3 mph 21.9 mph N/A   Scattered Clouds
2:35 PM 75.2 °F 64.4 °F 69% 29.81 in 10.0 mi SE 19.6 mph 25.3 mph N/A   Mostly Cloudy
4:15 PM 78.8 °F 60.8 °F 54% 29.76 in 10.0 mi SSE 20.7 mph 34.5 mph N/A   Mostly Cloudy
4:55 PM 75.2 °F 62.6 °F 65% 29.75 in 10.0 mi SE 17.3 mph 33.4 mph N/A   Scattered Clouds
5:35 PM 77.0 °F 60.8 °F 57% 29.75 in 10.0 mi SSE 20.7 mph 29.9 mph N/A   Mostly Cloudy
5:55 PM 77.0 °F 60.8 °F 57% 29.74 in 10.0 mi SSE 20.7 mph 24.2 mph N/A   Scattered Clouds
6:15 PM 75.2 °F 60.8 °F 61% 29.74 in 10.0 mi SSE 21.9 mph 32.2 mph N/A   Clear
6:35 PM 75.2 °F 60.8 °F 61% 29.75 in 10.0 mi SE 15.0 mph 26.5 mph N/A   Clear
7:15 PM 73.4 °F 60.8 °F 65% 29.76 in 10.0 mi SSE 15.0 mph 18.4 mph N/A   Clear
7:35 PM 73.4 °F 60.8 °F 65% 29.76 in 10.0 mi SSE 18.4 mph 21.9 mph N/A   Scattered Clouds
7:55 PM 71.6 °F 60.8 °F 69% 29.82 in 7.0 mi SSW 29.9 mph 41.4 mph N/A   Light Drizzle
8:15 PM 62.6 °F 59.0 °F 88% 29.81 in 10.0 mi South 12.7 mph 20.7 mph 0.04 in Rain Light Rain
8:35 PM 64.4 °F 60.8 °F 88% 29.81 in 10.0 mi South 8.1 mph - 0.05 in Rain Light Rain
8:55 PM 62.6 °F 60.8 °F 94% 29.80 in 10.0 mi SSE 8.1 mph - 0.06 in Rain Rain
9:15 PM 64.4 °F 60.8 °F 88% 29.80 in 10.0 mi SE 10.4 mph - 0.01 in Rain Rain
9:35 PM 66.2 °F 60.8 °F 83% 29.79 in 10.0 mi SE 11.5 mph 18.4 mph 0.02 in Rain Light Rain
9:55 PM 66.2 °F 60.8 °F 83% 29.78 in 10.0 mi SE 11.5 mph - 0.02 in   Scattered Clouds
10:15 PM 66.2 °F 60.8 °F 83% 29.78 in 10.0 mi SE 12.7 mph - N/A   Clear
10:35 PM 66.2 °F 60.8 °F 83% 29.78 in 10.0 mi SE 12.7 mph - N/A   Scattered Clouds
10:55 PM 66.2 °F 60.8 °F 83% 29.79 in 10.0 mi SE 13.8 mph - N/A   Mostly Cloudy
11:15 PM 66.2 °F 60.8 °F 83% 29.79 in 10.0 mi SSE 17.3 mph 20.7 mph N/A   Overcast
11:35 PM 66.2 °F 60.8 °F 83% 29.82 in 10.0 mi SW 9.2 mph 25.3 mph N/A   Overcast